Location: Unspecified
(50.7693°N, 0.0000°E)
Time: 04:53:06
(UTC+00:00)

Courier 1B - Visible Passes

Search period start: 19 June 2019 00:00
Search period end: 29 June 2019 00:00
Orbit: 963 x 1209 km, 28.3° (Epoch: 18 June)

Date Brightness Start Highest point End Pass type
(mag) Time Alt. Az. Time Alt. Az. Time Alt. Az.
19 Jun 9.5 21:13:59 10° SSW 21:16:48 12° S 21:19:40 10° SSE visible
20 Jun 9.6 22:14:03 10° SSW 22:15:54 11° S 22:16:39 11° S visible
21 Jun 9.6 21:20:02 10° SSW 21:22:26 12° S 21:24:50 10° SSE visible
